Location: Adamstown South Public School
(32.9318°S, 151.7012°E)
Time: 13:47:36
(UTC+00:00)

Cosmos 2369 Rocket - Pass Details

Date: 07 June 2020
Orbit: 830 x 851 km, 71.0° (Epoch: 04 July)

Event Time Altitude Azimuth Distance (km) Brightness Sun altitude
Rises 09:40:15 0° 214° (SW) 3,444 5.7 -34.2°
Reaches altitude 10° 09:43:01 10° 224° (SW) 2,501 5.0 -34.8°
Maximum altitude 09:47:52 29° 282° (WNW) 1,527 4.0 -35.8°
Drops below altitude 10° 09:52:41 10° 340° (NNW) 2,473 4.8 -36.8°
Sets 09:55:24 0° 351° (N) 3,399 5.5 -37.4°
